sat.trackr.live / text

‹ back to catalog

STARLINK-11123 [DTC]

NORAD 59948 · 2024-107D

PAYLOAD ACTIVE UNKNOWN

§ Identity

Operator
Country
US
Launch date
2024-06-05
Launch site
AFETR
Launch vehicle
Mass (kg)
RCS (m²)

Purposes: comms

External: N2YO · Heavens-Above · Gunter

§ Orbital elements

Epoch: 2026-09-21T11:24:27.673920Z

Period
91.74 min
Inclination
53.1587°
Eccentricity
0.0001004
Mean motion
15.69705722 rev/d
Perigee alt
359.1 km
Apogee alt
360.4 km
Semi-major
6,737.9 km
B*
-1.9782e-5
RAAN
6.3094°
Arg perigee
41.9661°
Mean anomaly
318.1434°
Rev number
13,295

§ Raw data

STARLINK-11123 [DTC]1 59948U 24107D   26264.47532030 -.00002984  00000+0 -19782-4 0  99982 59948  53.1587   6.3094 0001004  41.9661 318.1434 15.69705722132958

JSON: /api/v1/satellites/59948 · /tle

For live sub-satellite position, see the globe view (requires WebGL).

§ Visibility from observer

Set your observer location to see the next 7 days of passes ≥ 10°. The values pass through the URL so the page stays shareable.

No JS? Fill the form by hand. The geolocation button needs JavaScript.